Lexington Weather

Lexington, Massachusetts, USA

56°F
9/29/2023 4:21pm 
  • Lexington Conditions: Rain, Mist, Overcast
  • Temperature: 56.3°F / 13.5°CColder 2.3°F than last hour.
  • Dew Point: 55.2°FDecreased 2.4°Fsince last hour.
  • Relative Humidity: 96
  • Wind: Calm, 10-min avg: Calm, gust: None
  • Barometer: 30.21 in Steady
  • Visibility: 1½ miles
  • Rain Today: 0.44 in
  •   

Regional Weather Roundup
for Boston, MA

        
000
ASUS41 KBOX 250010
RWRBOX

REGIONAL WEATHER ROUNDUP
NATIONAL WEATHER SERVICE BOSTON/NORTON MA
800 PM EDT SUN SEP 24 2023

NOTE:  "FAIR" INDICATES FEW OR NO CLOUDS BELOW 12,000 FEET WITH NO 
SIGNIFICANT WEATHER AND/OR OBSTRUCTIONS TO VISIBILITY.

MAZALL-250100-
EASTERN MASSACHUSETTS
  
CITY           SKY/WX    TMP DP  RH WIND       PRES   REMARKS
BOSTON         CLOUDY    61  59  93 NE14      30.12R                  
6HR MIN TEMP:  60; 6HR MAX TEMP:  61; 6HR PCP:  0.30;                

BEVERLY        CLOUDY    59  57  93 NE9       30.12R                  
LAWRENCE       MOCLDY    58  56  93 NE8       30.15S                  
BEDFORD        CLOUDY    58  57  97 NE7       30.11S                  
NORWOOD        RAIN      62  58  86 NE7       30.11S FOG              
MARSHFIELD     LGT RAIN  61  59  94 NE8G17    30.11R VSB 1            
PLYMOUTH       LGT RAIN  61  60  97 NE10      30.09R FOG              
TAUNTON        LGT RAIN  62  59  90 VRB3      30.09R FOG              
NEW BEDFORD    CLOUDY    61  60  97 NE13G20   30.06S                  
$$

MAZALL-250100-
CAPE COD AND THE ISLANDS
  
CITY           SKY/WX    TMP DP  RH WIND       PRES   REMARKS
FALMOUTH       CLOUDY    61  61 100 E13G21    30.07S FOG              
HYANNIS        CLOUDY    59  59 100 NE9       30.06S FOG              
CHATHAM        CLOUDY    65  60  84 NE12      30.09R HAZE             
PROVINCETOWN   CLOUDY    60  60 100 E12       30.11R FOG              
NANTUCKET      CLOUDY    62  61  96 E13       30.04S                  
MARTHAS VNYRD  CLOUDY    62  61  96 E14G24    30.05S FOG              
$$
 
MAZALL-250100-
CENTRAL AND WESTERN MASSACHUSETTS
  
CITY           SKY/WX    TMP DP  RH WIND       PRES   REMARKS
WORCESTER      FOG       56  55  97 NE10G21   30.11S VSB 1/4          
6HR MIN TEMP:  56; 6HR MAX TEMP:  58; 6HR PCP:  0.15;                

FITCHBURG        N/A     58  54  86 N3        30.14R                  
ORANGE         CLOUDY    58  53  84 VRB5      30.13R                  
SPRINGFIELD    CLOUDY    59  58  97 NE12      30.07R                  
WESTFIELD      CLOUDY    57  55  93 N10       30.09R                  
NORTH ADAMS    CLOUDY    61  52  72 SE14      30.10R                  
PITTSFIELD     CLOUDY    56  51  84 NE8       30.09R                  
$$
 
RIZALL-250100-
RHODE ISLAND
  
CITY           SKY/WX    TMP DP  RH WIND       PRES   REMARKS
PROVIDENCE     LGT RAIN  59  59 100 N10       30.08F                  
6HR MIN TEMP:  59; 6HR MAX TEMP:  61; 6HR PCP:  0.62;                

NEWPORT        LGT RAIN  60  59  96 NE12      30.06R                  
BLOCK ISLAND   CLOUDY    61  60  97 NE15G23   30.04S FOG              
SMITHFIELD     LGT RAIN  58  58 100 NE8       30.10R                  
WESTERLY       CLOUDY    61  59  93 NE9       30.04S                  
$$
 
CTZALL-250100-
CONNECTICUT
  
CITY           SKY/WX    TMP DP  RH WIND       PRES   REMARKS
BRADLEY INTL   RAIN      59  57  93 N8        30.08R                  
6HR MIN TEMP:  59; 6HR MAX TEMP:  60; 6HR PCP:  0.12;                

HARTFORD       LGT RAIN  61  59  94 N7        30.07R                  
BRIDGEPORT     CLOUDY    62  60  93 NE17      30.01R                  
DANBURY        LGT RAIN  61  58  90 NE9       30.03S                  
GROTON         CLOUDY    63  61  93 NE15      30.03R                  
NEW HAVEN      CLOUDY    64  61  90 NE9       30.02S                  
CHESTER          N/A     61  61 100 NE12G18   30.04S                  
MERIDEN        CLOUDY    60  57  89 N7        30.05S                  
WILLIMANTIC    CLOUDY    60  58  92 NE5       30.08R                  
OXFORD         LGT RAIN  58  58 100 NE17G26   30.04F FOG              
$$

MEZ002-015-021-024-NHZ003-005-008-011-012-014-VTZ005-008-250100-
NORTHERN NEW ENGLAND
  
CITY           SKY/WX    TMP DP  RH WIND       PRES   REMARKS
PORTLAND ME    MOCLDY    56  52  86 N3        30.15F                  
6HR MIN TEMP:  56; 6HR MAX TEMP:  62;                                

BANGOR ME      MOCLDY    58  55  90 CALM      30.16R                  
CONCORD NH     CLOUDY    60  52  74 N3        30.14S                  
MANCHESTER NH  CLOUDY    59  56  89 CALM      30.13R                  
NASHUA NH      LGT RAIN  58  50  75 CALM      30.15R                  
PORTSMOUTH NH  CLOUDY    58  55  91 NE7       30.13S                  
JAFFREY NH     CLOUDY    57  54  89 CALM      30.15R                  
KEENE NH       CLOUDY    57  56  96 CALM      30.13R                  
BURLINGTON VT  MOCLDY    61  57  87 E3        30.14S                  
MT. WASHINGTON MOCLDY    46  27  46 E12         N/A                   
$$

NYZ052-076-250100-
EASTERN NEW YORK
  
CITY           SKY/WX    TMP DP  RH WIND       PRES   REMARKS
ALBANY         CLOUDY    59  54  83 NW5       30.10R                  
6HR MIN TEMP:  59; 6HR MAX TEMP:  65; 6HR PCP:  0.09;                

NEW YORK CITY  LGT RAIN  65  61  87 E28       29.95S                  
6HR MIN TEMP:  65; 6HR MAX TEMP:  66; 6HR PCP:  0.26;                

$$
 
ANZALL-250100-
MARINE OBSERVATIONS
  
STATION/POSITION TIME  TEMP    WIND        PRES    VSBY  WAVE
                       AIR SEA DIR/SP/G                  HT/PER
                 (UTC) (F)     (DEG/KT/KT) (MB)    (MI)  (FT/S)
BOSTON BUOY      2350   62 63   70/ 16/ 19 1019.3S         4/ 4
BUZZARDS BAY     2300   62      70/ 19/ 21 1017.7R
NANTUCKET SOUND  2350   62 67   70/ 21/ 25 1017.3R         4/ 4
MASS BAY-STELLWA NOT AVBL
ISLE OF SHOALS   2300   59      60/ 16/ 17 1019.4F
S OF BLOCK IS    2356      63                N/A           7/ 8
$$

......................KEY.........................
  SKY/WX - SKY CONDITION/PRESENT WEATHER
  TMP    - TEMPERATURE IN FAHRENHEIT
  DWPT   - DEWPOINT IN FAHRENHEIT
  RH     - RELATIVE HUMIDITY IN PERCENT
  WIND   - DIRECTION AND SPEED IN MPH
  PRES   - MEAN SEA LEVEL PRESSURE IN INCHES OF HG
  WCI    - WIND CHILL INDEX
  VSB    - VISIBILITY IN MILES
  HX     - HEAT INDEX
  TC     - TEMPERATURE IN CELSIUS
  VRB    - VARIABLE WIND DIRECTION
  N/A    - NOT AVAILABLE
  
      

Other recent Regional Weather Roundups

Fri Sep 29, 3:10pm EDT

Fri Sep 29, 2:10pm EDT

Fri Sep 29, 1:10pm EDT

Fri Sep 29, 12:10pm EDT

Fri Sep 29, 11:10am EDT

Fri Sep 29, 10:10am EDT

Fri Sep 29, 9:10am EDT

Fri Sep 29, 8:10am EDT

Fri Sep 29, 7:10am EDT

Fri Sep 29, 6:10am EDT

Fri Sep 29, 5:10am EDT

Fri Sep 29, 4:10am EDT

Fri Sep 29, 3:10am EDT

Fri Sep 29, 2:10am EDT

Fri Sep 29, 1:10am EDT

Fri Sep 29, 12:10am EDT

Thu Sep 28, 11:10pm EDT

Thu Sep 28, 10:10pm EDT

Thu Sep 28, 9:10pm EDT

Thu Sep 28, 8:10pm EDT

Thu Sep 28, 7:10pm EDT

Thu Sep 28, 6:10pm EDT

Thu Sep 28, 5:10pm EDT

Thu Sep 28, 4:10pm EDT

Thu Sep 28, 3:10pm EDT

Thu Sep 28, 2:10pm EDT

Thu Sep 28, 1:10pm EDT

Thu Sep 28, 12:10pm EDT

Thu Sep 28, 11:10am EDT

Thu Sep 28, 10:10am EDT

Thu Sep 28, 9:10am EDT

Thu Sep 28, 8:10am EDT

Thu Sep 28, 7:10am EDT

Thu Sep 28, 6:10am EDT

Thu Sep 28, 5:10am EDT

Thu Sep 28, 4:10am EDT

Thu Sep 28, 3:10am EDT

Thu Sep 28, 2:10am EDT

Thu Sep 28, 1:10am EDT

Thu Sep 28, 12:10am EDT

Wed Sep 27, 11:10pm EDT

Wed Sep 27, 10:10pm EDT

Wed Sep 27, 9:10pm EDT

Wed Sep 27, 8:10pm EDT

Wed Sep 27, 7:10pm EDT

Wed Sep 27, 6:10pm EDT

Wed Sep 27, 5:10pm EDT

Wed Sep 27, 4:10pm EDT

Wed Sep 27, 3:10pm EDT

Wed Sep 27, 2:10pm EDT

Wed Sep 27, 1:10pm EDT

Wed Sep 27, 12:10pm EDT

Wed Sep 27, 11:10am EDT

Wed Sep 27, 10:10am EDT

Wed Sep 27, 9:10am EDT

Wed Sep 27, 8:10am EDT

Wed Sep 27, 7:10am EDT

Wed Sep 27, 6:10am EDT

Wed Sep 27, 5:10am EDT

Wed Sep 27, 4:10am EDT

Wed Sep 27, 3:10am EDT

Wed Sep 27, 2:10am EDT

Wed Sep 27, 1:10am EDT

Wed Sep 27, 12:10am EDT

Tue Sep 26, 11:10pm EDT

Tue Sep 26, 10:10pm EDT

Tue Sep 26, 9:10pm EDT

Tue Sep 26, 8:10pm EDT

Tue Sep 26, 7:10pm EDT

Tue Sep 26, 6:10pm EDT

Tue Sep 26, 5:10pm EDT

Tue Sep 26, 4:10pm EDT

Tue Sep 26, 3:10pm EDT

Tue Sep 26, 2:10pm EDT

Tue Sep 26, 1:10pm EDT

Tue Sep 26, 12:10pm EDT

Tue Sep 26, 11:10am EDT

Tue Sep 26, 10:10am EDT

Tue Sep 26, 9:10am EDT

Tue Sep 26, 8:10am EDT

Tue Sep 26, 7:10am EDT

Tue Sep 26, 6:10am EDT

Tue Sep 26, 5:10am EDT

Tue Sep 26, 4:10am EDT

Tue Sep 26, 3:10am EDT

Tue Sep 26, 2:10am EDT

Tue Sep 26, 1:10am EDT

Tue Sep 26, 12:10am EDT

Mon Sep 25, 11:10pm EDT

Mon Sep 25, 10:10pm EDT

Mon Sep 25, 9:10pm EDT

Mon Sep 25, 8:10pm EDT

Mon Sep 25, 7:10pm EDT

Mon Sep 25, 6:10pm EDT

Mon Sep 25, 5:10pm EDT

Mon Sep 25, 4:10pm EDT

Mon Sep 25, 2:10pm EDT

Mon Sep 25, 1:10pm EDT

Mon Sep 25, 12:10pm EDT

Mon Sep 25, 11:10am EDT

Mon Sep 25, 10:10am EDT

Mon Sep 25, 9:10am EDT

Mon Sep 25, 8:10am EDT

Mon Sep 25, 7:10am EDT

Mon Sep 25, 6:10am EDT

Mon Sep 25, 5:10am EDT

Mon Sep 25, 4:10am EDT

Mon Sep 25, 3:10am EDT

Mon Sep 25, 2:10am EDT

Mon Sep 25, 1:10am EDT

Mon Sep 25, 12:10am EDT

Sun Sep 24, 11:10pm EDT

Sun Sep 24, 10:10pm EDT

Sun Sep 24, 9:10pm EDT

Sun Sep 24, 7:10pm EDT

Sun Sep 24, 6:10pm EDT

Sun Sep 24, 5:10pm EDT

Sun Sep 24, 4:10pm EDT

Sun Sep 24, 3:10pm EDT

Sun Sep 24, 2:10pm EDT

Sun Sep 24, 1:10pm EDT

Sun Sep 24, 12:10pm EDT

Sun Sep 24, 11:10am EDT

Sun Sep 24, 10:10am EDT

Sun Sep 24, 9:10am EDT

Sun Sep 24, 8:10am EDT

Sun Sep 24, 7:10am EDT

Sun Sep 24, 6:10am EDT

Sun Sep 24, 5:10am EDT

Sun Sep 24, 4:10am EDT

Sun Sep 24, 3:10am EDT

Sun Sep 24, 2:10am EDT

Sun Sep 24, 1:10am EDT

Sun Sep 24, 12:10am EDT

Sat Sep 23, 11:10pm EDT

Sat Sep 23, 10:10pm EDT

Sat Sep 23, 9:10pm EDT

Sat Sep 23, 8:10pm EDT

Sat Sep 23, 7:10pm EDT

Sat Sep 23, 6:10pm EDT

Sat Sep 23, 5:10pm EDT

Sat Sep 23, 4:10pm EDT

Sat Sep 23, 3:10pm EDT

Sat Sep 23, 2:10pm EDT

Sat Sep 23, 1:10pm EDT

Sat Sep 23, 12:10pm EDT

Sat Sep 23, 11:10am EDT

Sat Sep 23, 10:10am EDT

Sat Sep 23, 9:10am EDT

Sat Sep 23, 8:10am EDT

Sat Sep 23, 7:10am EDT

Sat Sep 23, 6:10am EDT

Sat Sep 23, 5:10am EDT

Sat Sep 23, 4:10am EDT

Sat Sep 23, 3:10am EDT

Sat Sep 23, 2:10am EDT

Sat Sep 23, 1:10am EDT

Sat Sep 23, 12:10am EDT

Fri Sep 22, 11:10pm EDT

Fri Sep 22, 10:10pm EDT

Fri Sep 22, 9:10pm EDT

Fri Sep 22, 8:10pm EDT

Fri Sep 22, 7:10pm EDT

Fri Sep 22, 6:10pm EDT

Fri Sep 22, 5:10pm EDT

Fri Sep 22, 4:10pm EDT